User: anonymous   Login
Location: Le Rocchette
(44.3500°N, 7.8333°E)
Time: 20:23:46
(UTC+00:00)
Language:

SJ 16-02 - Orbit

View from above orbital plane
View from above orbital plane
View from above satellite
View from above satellite

Ground track
Ground track

The orbit data is extracted from the following two-line orbital elements,

1 41634U 16043A   20023.48453357  .00000090  00000-0  13604-4 0  9995
2 41634  75.0037 345.5861 0008688 281.7632  78.2578 14.85634578193565
Epoch (UTC): 23 January 2020 11:37:43
Eccentricity: 0.0008688
inclination: 75.0037°
perigee height: 605 km
apogee height: 617 km
right ascension of ascending node: 345.5861°
argument of perigee: 281.7632°
revolutions per day: 14.85634578
mean anomaly at epoch: 78.2578°
orbit number at epoch: 19356

The dashed part of the orbit path shows where the satellite is in the earth's shadow,  

DLR